Tracking 29799 objects as of 11-Oct-2024
HD Live streaming from Space Station
objects crossing your sky now

ONEWEB-0327

Track ONEWEB-0327 now!
10-day predictions
ONEWEB-0327 is classified as:


NORAD ID: 49196
Int'l Code: 2021-083L
Perigee: 1,195.8 km
Apogee: 1,197.9 km
Inclination: 87.9 °
Period: 109.2 minutes
Semi major axis: 7567 km
RCS: Unknown
Launch date: September 14, 2021
Source: United Kingdom (UK)
Launch site: TYURATAM MISSILE AND SPACE COMPLEX (TTMTR)
Your satellite tracking list
Your tracking list is empty




NASA's NSSDC Master Catalog

Two Line Element Set (TLE):
1 49196U 21083L   24284.85782663 -.00000269  00000-0 -71488-3 0  9998
2 49196  87.9051  97.7532 0001364  95.0732 265.0555 13.18687828149053
Source of the keplerian elements: AFSPC